Regional Weather Roundup
Issued by NWS

Home | Current Version | Previous Version | Graphics & Text | Print | Product List | Glossary On
Versions: 1 2 3 4 5 6 7 8 9 10 11 12 13 14 15 16 17 18 19 20 21 22 23 24 25 26 27 28 29 30 31 32 33 34 35 36 37 38 39 40 41 42 43 44 45 46 47 48 49 50
000
ASUS45 KPSR 260900
RWRAZ

PRELIMINARY ARIZONA REGIONAL HOURLY WEATHER ROUNDUP
NATIONAL WEATHER SERVICE PHOENIX AZ
200 AM MST SAT JUL 26 2014

NOTE: FAIR INDICATES FEW OR NO CLOUDS BELOW 12,000 FEET WITH NO
SIGNIFICANT WEATHER AND/OR OBSTRUCTIONS TO VISIBILITY.

AZZ001>003-036-261000-
NORTHWEST ARIZONA

CITY           SKY/WX    TMP DP  RH WIND       PRES   REMARKS
KINGMAN        CLOUDY    74  64  71 S6        30.04F
$$

AZZ004>008-015-016-018-261000-
NORTH CENTRAL ARIZONA

CITY           SKY/WX    TMP DP  RH WIND       PRES   REMARKS
GRAND CANYON   CLOUDY    66  48  52 SE5       30.31F
WILLIAMS       CLOUDY    59  54  82 E3        30.39F
PRESCOTT       CLOUDY    66  58  75 CALM      30.21F
FLAGSTAFF      MOCLDY    63  47  55 VRB3      30.35F
PAYSON         CLOUDY    70  59  68 CALM      30.21F
PAGE           CLOUDY    81  52  36 CALM      30.10S
$$

AZZ009>014-017-261000-
NORTHEAST ARIZONA

CITY           SKY/WX    TMP DP  RH WIND       PRES   REMARKS
WINSLOW        NOT AVBL
SAINT JOHNS    MOCLDY    72  52  49 SW5       30.23S
WINDOW ROCK    PTCLDY    69  43  38 CALM      30.29S
$$

AZZ023-261000-
GREATER PHOENIX AREA

CITY           SKY/WX    TMP DP  RH WIND       PRES   REMARKS
PHOENIX        CLOUDY    88  63  43 S6        29.89S
BUCKEYE          N/A     86  63  45 CALM      29.90S
LUKE AFB       NOT AVBL
DEER VALLEY    CLOUDY    88  63  43 CALM      29.91F
SCOTTSDALE     CLOUDY    86  64  47 E3        29.94S
MESA-GATEWAY     N/A    N/A N/A N/A MISG        N/A
$$

AZZ027-028-261000-
SOUTHWEST MARICOPA COUNTY AND PINAL COUNTY

CITY           SKY/WX    TMP DP  RH WIND       PRES   REMARKS
CASA GRANDE    MOCLDY    81  64  57 CALM      29.95F
$$

AZZ503-504-507>509-261000-
SOUTHEAST ARIZONA

CITY           SKY/WX    TMP DP  RH WIND       PRES   REMARKS
TUCSON         PTCLDY    78  62  57 E7        30.04F
DAVIS-MONTHAN  MOCLDY    76  63  63 S5        30.03S
NOGALES        PTCLDY    69  62  78 CALM      30.12S
SIERRA VISTA   CLEAR     68  55  63 W5        30.17S
SAFFORD        CLEAR     79  58  48 NW12      30.01F
$$

AZZ020-021-025-026-031-261000-
SOUTHWEST ARIZONA

CITY           SKY/WX    TMP DP  RH WIND       PRES   REMARKS
YUMA           MOCLDY    93  64  38 SE7       29.82S
$$

CAZ031-033-041-043-047-048-061-261000-
SOUTHERN CALIFORNIA

CITY           SKY/WX    TMP DP  RH WIND       PRES   REMARKS
DOWNTOWN L.A.  PTCLDY    70  64  81 W3        29.91S
L.A. AIRPORT   FOG       66  64  94 W6        29.92S VSB 1
SAN DIEGO      MOCLDY    70  64  81 CALM      29.92F
BURBANK        PTCLDY    73  60  63 SE5       29.92S
ONTARIO        PTCLDY    73  62  68 CALM      29.94R
RIVERSIDE      CLEAR     74  62  66 CALM      29.93F
PALM SPRINGS   PTCLDY    83  64  52 S3        29.85R
EL CENTRO NAS  MOCLDY    88  65  46 NE5       29.77S
IMPERIAL       MOCLDY    90  68  48 E8        29.77S
BLYTHE         PTCLDY    92  65  40 S7        29.83S
$$

NVZ020-UTZ003-261000-
SOUTHERN NEVADA-UTAH

CITY           SKY/WX    TMP DP  RH WIND       PRES   REMARKS
LAS VEGAS      NOT AVBL
SALT LAKE CITY CLEAR     73  45  36 NW6       30.03R
$$

NMZ009-TXZ055-261000-
NEW MEXICO-WEST TEXAS

CITY           SKY/WX    TMP DP  RH WIND       PRES   REMARKS
ALBUQUERQUE    PTCLDY    78  41  26 SE6       30.12S
EL PASO        PTCLDY    83  40  21 CALM      30.03F
$$


........................KEY........................
SKY/WX - SKY CONDITION/WEATHER
TMP    - TEMPERATURE IN FAHRENHEIT
DP     - DEW POINT IN FAHRENHEIT
RH     - RELATIVE HUMIDITY IN PERCENT
WIND   - DIRECTION AND SPEED IN MILES PER HOUR (MPH)
VRB    - VARIABLE WIND DIRECTION
PRES   - MEAN SEA LEVEL PRESSURE IN INCHES OF MERCURY
         F - FALLING PRESSURE   R - RISING PRESSURE
         S - STEADY PRESSURE
VSB    - VISIBILITY IN MILES
HX     - HEAT INDEX IN FAHRENHEIT
WCI    - WIND CHILL INDEX IN FAHRENHEIT
TC     - TEMPERATURE IN CELSIUS WHICH IS ALSO KNOWN AS
         TEMPERATURE IN CENTIGRADE
AFB    - AIR FORCE BASE
         LUKE AFB IS LUKE AIR FORCE BASE
         DAVIS-MONTHAN IS DAVIS-MONTHAN AIR FORCE BASE
NAS    - NAVAL AIR STATION
         EL CENTRO NAS IS EL CENTRO NAVAL AIR STATION
N/A    - NOT AVAILABLE


USA.gov is the U.S. government's official web portal to all federal, state and local government web resources and services.